User: anonymous   Login
Location: Bazugues
(43.4465°N, 0.3432°E)
Time: 15:34:55
(UTC+00:00)
Language:

Meteor 2-10 Rocket - Orbit

View from above orbital plane
View from above orbital plane
View from above satellite
View from above satellite

Ground track
Ground track

The orbit is defined by the following mean orbital elements,

1 14453U          26070.32364160 +.00000000 +00000-0 +54058-4 0 00006
2 14453  81.1665 136.8626 0103710 194.0452 165.7840 14.25439944    01
Epoch (UTC): 11 March 2026 07:46:02
Eccentricity: 0.0103710
inclination: 81.1665°
perigee height: 732 km
apogee height: 882 km
right ascension of ascending node: 136.8626°
argument of perigee: 194.0452°
revolutions per day: 14.25439944
mean anomaly at epoch: 165.7840°

The dashed part of the orbit path shows where the satellite is in the earth's shadow,  

DLR